TimeCDT,TemperatureF,Dew PointF,Humidity,Sea Level PressureIn,VisibilityMPH,Wind Direction,Wind SpeedMPH,Gust SpeedMPH,PrecipitationIn,Events,Conditions,WindDirDegrees,DateUTC
12:14 AM,50.4,39.0,65,29.87,10.0,Calm,Calm,-,N/A,,Clear,0,2012-10-03 05:14:00
12:34 AM,52.2,39.2,61,29.87,10.0,SSE,3.5,-,N/A,,Clear,160,2012-10-03 05:34:00
12:54 AM,49.8,38.5,65,29.88,10.0,Calm,Calm,-,N/A,,Clear,0,2012-10-03 05:54:00
1:14 AM,43.0,38.1,83,29.88,10.0,Calm,Calm,-,N/A,,Clear,0,2012-10-03 06:14:00
1:34 AM,46.2,39.7,78,29.88,10.0,SSE,3.5,-,N/A,,Clear,150,2012-10-03 06:34:00
1:54 AM,47.1,41.0,79,29.88,10.0,SSE,3.5,-,N/A,,Clear,150,2012-10-03 06:54:00
2:14 AM,47.3,39.6,74,29.89,10.0,SSE,3.5,-,N/A,,Clear,150,2012-10-03 07:14:00
2:34 AM,41.5,38.7,89,29.89,10.0,Calm,Calm,-,N/A,,Clear,0,2012-10-03 07:34:00
2:54 AM,41.9,38.7,88,29.88,10.0,Calm,Calm,-,N/A,,Clear,0,2012-10-03 07:54:00
3:14 AM,44.1,40.1,86,29.88,10.0,SSE,3.5,-,N/A,,Clear,160,2012-10-03 08:14:00
3:34 AM,45.3,39.9,81,29.88,10.0,SSE,3.5,-,N/A,,Clear,160,2012-10-03 08:34:00
3:54 AM,45.7,39.4,79,29.88,10.0,SSE,4.6,-,N/A,,Clear,150,2012-10-03 08:54:00
4:14 AM,45.9,39.7,79,29.88,10.0,SSE,3.5,-,N/A,,Clear,160,2012-10-03 09:14:00
4:34 AM,46.8,38.5,73,29.88,10.0,South,4.6,-,N/A,,Clear,170,2012-10-03 09:34:00
4:54 AM,44.4,37.6,77,29.88,10.0,SSE,4.6,-,N/A,,Clear,160,2012-10-03 09:54:00
5:14 AM,41.2,36.7,84,29.89,10.0,South,3.5,-,N/A,,Clear,180,2012-10-03 10:14:00
5:34 AM,41.2,36.1,82,29.89,10.0,Calm,Calm,-,N/A,,Clear,0,2012-10-03 10:34:00
5:54 AM,40.3,38.3,93,29.89,10.0,Calm,Calm,-,N/A,,Clear,0,2012-10-03 10:54:00
6:14 AM,39.0,36.1,89,29.89,10.0,Calm,Calm,-,N/A,,Clear,0,2012-10-03 11:14:00
6:34 AM,40.5,36.1,85,29.89,10.0,Calm,Calm,-,N/A,,Clear,0,2012-10-03 11:34:00
6:54 AM,42.4,37.6,83,29.90,10.0,SSE,4.6,-,N/A,,Clear,150,2012-10-03 11:54:00
7:13 AM,43.7,38.3,81,29.90,10.0,SSE,4.6,-,N/A,,Clear,150,2012-10-03 12:13:00
7:34 AM,43.9,38.3,81,29.90,10.0,South,4.6,-,N/A,,Clear,170,2012-10-03 12:34:00
7:54 AM,45.9,37.9,74,29.90,10.0,South,5.8,-,N/A,,Clear,170,2012-10-03 12:54:00
8:13 AM,46.8,38.3,72,29.91,10.0,South,4.6,-,N/A,,Clear,170,2012-10-03 13:13:00
8:34 AM,48.9,39.4,70,29.91,10.0,Calm,Calm,-,N/A,,Clear,0,2012-10-03 13:34:00
8:54 AM,51.4,39.9,65,29.90,10.0,South,4.6,-,N/A,,Clear,180,2012-10-03 13:54:00
9:14 AM,53.2,40.5,62,29.90,10.0,SSE,3.5,-,N/A,,Clear,160,2012-10-03 14:14:00
9:34 AM,55.6,40.8,58,29.90,10.0,Calm,Calm,-,N/A,,Clear,0,2012-10-03 14:34:00
9:54 AM,58.3,39.9,50,29.90,10.0,South,5.8,-,N/A,,Clear,170,2012-10-03 14:54:00
10:14 AM,61.0,39.6,45,29.90,10.0,SSE,4.6,-,N/A,,Clear,160,2012-10-03 15:14:00
10:34 AM,63.0,38.7,41,29.90,10.0,South,4.6,-,N/A,,Clear,190,2012-10-03 15:34:00
10:54 AM,65.1,38.3,37,29.90,10.0,South,4.6,-,N/A,,Clear,180,2012-10-03 15:54:00
11:14 AM,67.1,38.1,34,29.90,10.0,Calm,Calm,-,N/A,,Clear,0,2012-10-03 16:14:00
11:34 AM,68.7,38.3,33,29.90,10.0,SE,5.8,-,N/A,,Clear,140,2012-10-03 16:34:00
11:54 AM,70.0,38.5,32,29.89,10.0,South,6.9,-,N/A,,Clear,180,2012-10-03 16:54:00
12:14 PM,71.2,37.2,29,29.89,10.0,SSE,5.8,-,N/A,,Clear,160,2012-10-03 17:14:00
12:34 PM,72.3,36.1,27,29.88,10.0,South,6.9,-,N/A,,Clear,180,2012-10-03 17:34:00
12:54 PM,73.2,36.3,26,29.88,10.0,SSE,9.2,-,N/A,,Clear,160,2012-10-03 17:54:00
1:14 PM,73.9,36.3,25,29.87,10.0,SSE,6.9,-,N/A,,Clear,160,2012-10-03 18:14:00
1:34 PM,74.3,35.6,24,29.86,10.0,SSE,6.9,-,N/A,,Clear,150,2012-10-03 18:34:00
1:54 PM,74.8,34.5,23,29.85,10.0,SSE,5.8,-,N/A,,Clear,160,2012-10-03 18:54:00
2:14 PM,74.8,33.8,22,29.85,10.0,SSE,8.1,-,N/A,,Clear,150,2012-10-03 19:14:00
2:34 PM,75.2,34.2,22,29.84,10.0,SE,6.9,-,N/A,,Clear,130,2012-10-03 19:34:00
2:54 PM,75.4,34.0,22,29.84,10.0,SSE,6.9,-,N/A,,Clear,150,2012-10-03 19:54:00
3:14 PM,75.4,32.9,21,29.84,10.0,South,9.2,-,N/A,,Clear,170,2012-10-03 20:14:00
3:34 PM,74.1,34.3,23,29.84,10.0,SSE,5.8,-,N/A,,Clear,150,2012-10-03 20:34:00
3:54 PM,76.1,34.0,22,29.84,10.0,South,8.1,-,N/A,,Clear,180,2012-10-03 20:54:00
4:14 PM,75.7,35.1,23,29.83,10.0,SSE,4.6,-,N/A,,Clear,150,2012-10-03 21:14:00
4:34 PM,74.3,34.7,24,29.83,10.0,SE,5.8,-,N/A,,Clear,130,2012-10-03 21:34:00
4:53 PM,74.5,36.1,25,29.83,10.0,SE,8.1,-,N/A,,Clear,130,2012-10-03 21:53:00
5:14 PM,73.4,36.5,26,29.84,10.0,SE,3.5,-,N/A,,Clear,140,2012-10-03 22:14:00
5:34 PM,74.3,37.9,27,29.84,10.0,ESE,3.5,-,N/A,,Clear,120,2012-10-03 22:34:00
5:54 PM,72.5,38.7,29,29.84,10.0,SE,3.5,-,N/A,,Clear,130,2012-10-03 22:54:00
6:14 PM,71.4,39.7,32,29.84,10.0,ESE,3.5,-,N/A,,Clear,120,2012-10-03 23:14:00
6:34 PM,69.3,41.0,36,29.85,3.0,Calm,Calm,-,N/A,,Haze,0,2012-10-03 23:34:00
6:54 PM,67.3,41.2,39,29.84,5.0,East,4.6,-,N/A,,Haze,90,2012-10-03 23:54:00
7:14 PM,67.3,42.8,41,29.84,7.0,East,5.8,-,N/A,,Clear,100,2012-10-04 00:14:00
7:34 PM,67.1,43.2,42,29.84,10.0,ESE,4.6,-,N/A,,Clear,110,2012-10-04 00:34:00
7:54 PM,66.9,42.6,41,29.85,7.0,Calm,Calm,-,N/A,,Clear,0,2012-10-04 00:54:00
8:14 PM,65.1,44.1,46,29.85,7.0,ESE,3.5,-,N/A,,Clear,120,2012-10-04 01:14:00
8:34 PM,65.5,43.2,44,29.84,7.0,ESE,3.5,-,N/A,,Clear,120,2012-10-04 01:34:00
8:54 PM,64.0,45.9,52,29.84,10.0,ESE,3.5,-,N/A,,Clear,120,2012-10-04 01:54:00
9:14 PM,63.5,45.7,52,29.84,10.0,SE,3.5,-,N/A,,Clear,140,2012-10-04 02:14:00
9:34 PM,63.7,45.5,52,29.85,10.0,SE,3.5,-,N/A,,Clear,130,2012-10-04 02:34:00
10:14 PM,63.0,46.9,56,29.84,10.0,SE,3.5,-,N/A,,Clear,130,2012-10-04 03:14:00
10:34 PM,62.6,46.6,56,29.84,10.0,SE,4.6,-,N/A,,Clear,140,2012-10-04 03:34:00
10:54 PM,62.6,46.8,56,29.83,10.0,SE,4.6,-,N/A,,Clear,140,2012-10-04 03:54:00
11:14 PM,62.8,45.3,53,29.83,10.0,SE,4.6,-,N/A,,Clear,140,2012-10-04 04:14:00
11:34 PM,61.7,44.6,53,29.82,10.0,SSE,4.6,-,N/A,,Clear,150,2012-10-04 04:34:00
11:54 PM,61.2,44.6,54,29.81,10.0,SSE,4.6,-,N/A,,Clear,150,2012-10-04 04:54:00